Location: Esp�n
(42.4593°N, 0.2047°W)
Time: 17:16:45
(UTC+00:00)

Cosmos 540 Rocket - Visible Passes

Search period start: 26 September 2020 00:00
Search period end: 06 October 2020 00:00
Orbit: 740 x 754 km, 74.1° (Epoch: 26 September)

Date Brightness Start Highest point End Pass type
(mag) Time Alt. Az. Time Alt. Az. Time Alt. Az.
26 Sep 5.0 02:57:05 29° ESE 02:57:50 31° E 03:02:20 10° NE visible
26 Sep 4.2 04:36:57 23° WSW 04:39:21 33° WNW 04:44:03 10° N visible
27 Sep 5.9 02:15:10 16° E 02:15:10 16° E 02:17:48 10° ENE visible
27 Sep 3.4 03:55:01 55° WSW 03:55:48 63° WNW 04:00:58 10° NNE visible
28 Sep 3.8 03:13:01 61° ENE 03:13:01 61° ENE 03:17:35 10° NNE visible
28 Sep 5.0 04:52:52 15° WNW 04:54:32 17° NW 04:57:57 10° NNW visible
29 Sep 5.3 02:30:56 27° ENE 02:30:56 27° ENE 02:33:51 10° NE visible
29 Sep 4.3 04:10:47 30° WNW 04:10:47 30° WNW 04:15:22 10° N visible
30 Sep 6.3 01:48:47 12° ENE 01:48:47 12° ENE 01:49:29 10° NE visible
30 Sep 4.2 03:28:39 42° NNW 03:28:39 42° NNW 03:32:20 10° NNE visible
01 Oct 5.1 02:46:26 30° NNE 02:46:26 30° NNE 02:49:00 10° NNE visible
01 Oct 5.2 04:26:17 16° NW 04:26:17 16° NW 04:29:09 10° NNW visible
02 Oct 6.1 02:04:11 16° NE 02:04:11 16° NE 02:05:20 10° NE visible
02 Oct 5.0 03:44:01 23° NNW 03:44:01 23° NNW 03:46:41 10° N visible
03 Oct 5.3 03:01:44 23° N 03:01:44 23° N 03:03:42 10° N visible
04 Oct 6.0 02:19:24 16° NNE 02:19:24 16° NNE 02:20:25 10° NNE visible
04 Oct 5.6 03:59:14 13° NNW 03:59:14 13° NNW 04:00:19 10° NNW visible
05 Oct 5.7 03:16:52 15° NNW 03:16:52 15° NNW 03:17:59 10° N visible
